Home > Weather > Liverpool > Past weeks

Flag for United Kingdom Past Weather in Liverpool, England, United Kingdom — Yesterday and Last 2 Weeks

Now
63 °F

Scattered clouds.


Feels Like: 63 °F
Forecast: 59 / 67 °F
Wind: 15 mph from West

Location: Liverpool Airport

Current Time: Jul 25, 2016 at 9:21:58 AM

Latest Report: Jul 25, 2016 at 8:50 AM


Visibility: N/A

Pressure: 30.04 "Hg

Humidity: 73%

Dew Point: 54 °F

Location of LiverpoolLocation

Past Weather in Liverpool — Graph

°F

Liverpool Temperature Yesterday

Maximum temperature yesterday: 68 °F (at 12:20 PM)
Minimum temperature yesterday: 61 °F (at 11:50 PM)
Average temperature yesterday: 65 °F

High & Low Weather Summary for the Past Weeks

 TemperatureHumidityPressure
High86 °F (Jul 19, 5:20 PM)100% (Jul 11, 7:20 AM)30.30 "Hg (Jul 11, 7:20 AM)
Low52 °F (Jul 13, 2:50 AM)45% (Jul 19, 2:50 PM)29.47 "Hg (Jul 11, 2:50 AM)
Average64 °F79%30.01 "Hg
* Reported Jul 10 8:20 AM — Jul 25 8:20 AM, Liverpool, Weather by CustomWeather, © 2016

Note: Actual official high and low records may vary slightly from our data, if they occured in-between our weather recording intervals... More about our weather records

Advertising

Liverpool Weather History for the Previous 24 Hours

Scroll right to see more
 ConditionsComfort  
Time TempWeatherWind HumidityBarometerVisibility
8:20 AM
Mon, Jul 25
61 °FScattered clouds.10 mph77%30.04 "HgN/A
7:50 AM61 °FScattered clouds.12 mph77%30.04 "HgN/A
7:20 AM59 °FPassing clouds.12 mph82%30.04 "HgN/A
6:50 AM59 °FScattered clouds.10 mph82%30.04 "HgN/A
6:20 AM59 °FScattered clouds.10 mph82%30.04 "HgN/A
5:50 AM59 °FPassing clouds.10 mph88%30.04 "HgN/A
5:20 AM59 °FPassing clouds.9 mph88%30.01 "HgN/A
4:50 AM61 °FClear.9 mph83%30.01 "Hg10 mi
4:20 AM59 °FClear.10 mph88%30.01 "Hg10 mi
3:50 AM61 °FClear.10 mph83%30.01 "Hg10 mi
3:20 AM59 °FClear.13 mph88%30.01 "Hg10 mi
2:50 AM61 °FClear.13 mph83%30.01 "Hg10 mi
2:20 AM61 °FClear.13 mph83%30.01 "Hg10 mi
1:50 AM61 °FClear.10 mph83%30.01 "Hg10 mi
1:20 AM61 °FClear.14 mph83%30.01 "Hg10 mi
12:50 AM61 °FClear.10 mph88%30.01 "Hg10 mi
12:20 AM61 °FClear.7 mph83%30.01 "Hg10 mi
11:50 PM
Sun, Jul 24
61 °FClear.10 mph88%29.98 "Hg10 mi
11:20 PM63 °FClear.12 mph83%29.98 "Hg10 mi
10:50 PM63 °FClear.10 mph83%29.98 "Hg10 mi
10:20 PM63 °FPassing clouds.7 mph83%30.01 "HgN/A
9:50 PM63 °FPassing clouds.5 mph83%29.98 "HgN/A
9:20 PM63 °FPassing clouds.10 mph83%29.98 "HgN/A
8:50 PM64 °FScattered clouds.16 mph78%29.98 "HgN/A
8:20 PM66 °FScattered clouds.17 mph73%29.98 "HgN/A
7:50 PM66 °FScattered clouds.14 mph73%29.98 "HgN/A
7:20 PM66 °FScattered showers. Scattered clouds.20 mph68%29.95 "HgN/A
6:50 PM68 °FScattered showers. Scattered clouds.16 mph73%29.95 "HgN/A
6:20 PM68 °FScattered showers. Scattered clouds.10 mph78%29.95 "HgN/A
5:50 PM68 °FScattered showers. Partly sunny.10 mph83%29.95 "HgN/A
5:20 PM68 °FScattered showers. Partly sunny.12 mph78%29.95 "HgN/A
4:50 PM66 °FDrizzle. Partly sunny.13 mph83%29.95 "HgN/A
4:20 PM68 °FSprinkles. Partly sunny.9 mph78%29.98 "HgN/A
3:50 PM66 °FPartly sunny.10 mph83%29.98 "HgN/A
3:20 PM66 °FRain. Broken clouds.7 mph78%29.98 "HgN/A
2:50 PM66 °FScattered clouds.8 mph78%29.98 "HgN/A
2:20 PM68 °FScattered clouds.12 mph73%29.98 "HgN/A
1:50 PM66 °FScattered clouds.10 mph78%30.01 "HgN/A
1:20 PM66 °FScattered clouds.13 mph78%30.01 "HgN/A
12:50 PM64 °FSprinkles. Partly sunny.12 mph83%30.01 "HgN/A
12:20 PM68 °FScattered showers. Scattered clouds.12 mph69%30.01 "HgN/A
11:50 AM66 °FPassing clouds.7 mph78%30.01 "HgN/A
11:20 AM64 °FSprinkles. Scattered clouds.12 mph78%30.04 "HgN/A
10:50 AM66 °FScattered showers. Scattered clouds.7 mph78%30.01 "HgN/A
10:20 AM64 °FLight rain. Scattered clouds.6 mph88%30.01 "HgN/A
9:50 AM64 °FLight rain. Scattered clouds.5 mph83%30.04 "HgN/A
9:20 AM64 °FPassing clouds.3 mph83%30.04 "HgN/A
Weather by CustomWeather, © 2016

See weather overviewHow to use our weather pages